When you browse on this site, cookies collect data to enhance your experience and personalize the content and advertising you see.
Visit our Privacy Policy to learn more. By continuing to use the site, you agree to this use of cookies and data.
  • In Hungary
  • List of Countries
  • For 7 days
  • Water Temperature
  • Weather Map
  • News
  • Weather Widgets
  • user-avatar
    Login

    Hourly Weather Kuleshovka

    Today, 17 October, Thursday

    Time Temperature Precipitation Wind Pressure Humidity
    00:00 +3°C° 0 mm 1 mps 766 mmHg 83%
    01:00 +2°C° 0 mm 0 mps 766 mmHg 83%
    02:00 +2°C° 0 mm 0 mps 767 mmHg 83%
    03:00 +2°C° 0 mm 0 mps 767 mmHg 82%
    04:00 +3°C° 0 mm 1 mps 767 mmHg 82%
    05:00 +3°C° 0 mm 1 mps 767 mmHg 82%
    06:00 +2°C° 0 mm 2 mps 767 mmHg 82%
    07:00 +3°C° 0 mm 2 mps 767 mmHg 80%
    08:00 +3°C° 0 mm 3 mps 767 mmHg 77%
    09:00 +4°C° 0 mm 4 mps 767 mmHg 70%
    10:00 +5°C° 0.2 mm 5 mps 767 mmHg 66%
    11:00 +6°C° 0.2 mm 5 mps 766 mmHg 61%
    12:00 +7°C° 0.2 mm 6 mps 765 mmHg 56%
    13:00 +8°C° 0 mm 6 mps 765 mmHg 55%
    14:00 +8°C° 0 mm 7 mps 764 mmHg 54%
    15:00 +8°C° 0 mm 7 mps 764 mmHg 52%
    16:00 +8°C° 0 mm 6 mps 763 mmHg 54%
    17:00 +7°C° 0 mm 6 mps 763 mmHg 56%
    18:00 +7°C° 0 mm 6 mps 763 mmHg 57%
    19:00 +7°C° 0 mm 6 mps 763 mmHg 56%
    20:00 +5°C° 0 mm 6 mps 762 mmHg 55%
    21:00 +5°C° 0 mm 6 mps 762 mmHg 54%
    22:00 +5°C° 0 mm 6 mps 762 mmHg 55%
    23:00 +5°C° 0 mm 6 mps 761 mmHg 56%

    Tomorrow, 18 October, Friday

    Time Temperature Precipitation Wind Pressure Humidity
    00:00 +5°C° 0 mm 5 mps 761 mmHg 56%
    01:00 +5°C° 0 mm 5 mps 761 mmHg 57%
    02:00 +5°C° 0 mm 5 mps 761 mmHg 58%
    03:00 +4°C° 0 mm 6 mps 761 mmHg 59%
    04:00 +4°C° 0 mm 6 mps 760 mmHg 59%
    05:00 +3°C° 0 mm 6 mps 759 mmHg 59%
    06:00 +3°C° 0 mm 6 mps 759 mmHg 60%
    07:00 +4°C° 0 mm 6 mps 758 mmHg 57%
    08:00 +5°C° 0 mm 6 mps 758 mmHg 54%
    09:00 +8°C° 0 mm 7 mps 758 mmHg 52%
    10:00 +9°C° 0 mm 7 mps 758 mmHg 51%
    11:00 +10°C° 0 mm 7 mps 757 mmHg 50%
    12:00 +12°C° 0 mm 7 mps 757 mmHg 49%
    13:00 +12°C° 0 mm 7 mps 756 mmHg 51%
    14:00 +13°C° 0 mm 6 mps 756 mmHg 52%
    15:00 +13°C° 0 mm 6 mps 756 mmHg 54%
    16:00 +12°C° 0 mm 5 mps 756 mmHg 59%
    17:00 +11°C° 0 mm 4 mps 755 mmHg 64%
    18:00 +10°C° 0 mm 4 mps 755 mmHg 70%
    19:00 +10°C° 0 mm 3 mps 755 mmHg 74%
    20:00 +9°C° 0 mm 3 mps 755 mmHg 78%
    21:00 +9°C° 0 mm 3 mps 756 mmHg 82%
    22:00 +9°C° 0 mm 2 mps 756 mmHg 84%
    23:00 +9°C° 0 mm 2 mps 756 mmHg 86%

    Day after tomorrow, 19 October, Saturday

    Time Temperature Precipitation Wind Pressure Humidity
    00:00 +11°C° 0 mm 1 mps 756 mmHg 88%
    01:00 +11°C° 0 mm 1 mps 756 mmHg 88%
    02:00 +10°C° 0 mm 1 mps 756 mmHg 89%
    03:00 +10°C° 0 mm 1 mps 756 mmHg 89%
    04:00 +10°C° 0 mm 1 mps 756 mmHg 89%
    05:00 +10°C° 0 mm 1 mps 757 mmHg 88%
    06:00 +10°C° 0 mm 1 mps 757 mmHg 88%
    07:00 +11°C° 0 mm 1 mps 757 mmHg 87%
    08:00 +10°C° 0 mm 2 mps 758 mmHg 87%
    09:00 +10°C° 0 mm 2 mps 758 mmHg 86%
    10:00 +12°C° 0 mm 2 mps 758 mmHg 85%
    11:00 +12°C° 0 mm 2 mps 759 mmHg 84%
    12:00 +11°C° 0 mm 3 mps 759 mmHg 83%
    13:00 +11°C° 0 mm 3 mps 759 mmHg 83%
    14:00 +11°C° 0 mm 3 mps 759 mmHg 82%
    15:00 +10°C° 0 mm 3 mps 760 mmHg 82%
    16:00 +10°C° 0 mm 3 mps 760 mmHg 82%
    17:00 +9°C° 0 mm 3 mps 760 mmHg 82%
    18:00 +9°C° 0 mm 3 mps 761 mmHg 82%
    19:00 +9°C° 0 mm 3 mps 761 mmHg 82%
    20:00 +8°C° 0 mm 3 mps 761 mmHg 82%
    21:00 +8°C° 0 mm 3 mps 762 mmHg 82%
    22:00 +7°C° 0 mm 3 mps 762 mmHg 83%
    23:00 +7°C° 0 mm 2 mps 762 mmHg 85%

    20 October, Sunday

    Time Temperature Precipitation Wind Pressure Humidity
    00:00 +6°C° 0 mm 2 mps 762 mmHg 87%
    01:00 +6°C° 0 mm 2 mps 763 mmHg 87%
    02:00 +5°C° 0 mm 2 mps 763 mmHg 88%
    03:00 +5°C° 0 mm 2 mps 763 mmHg 88%
    04:00 +5°C° 0 mm 2 mps 763 mmHg 88%
    05:00 +5°C° 0 mm 2 mps 764 mmHg 88%
    06:00 +5°C° 0 mm 2 mps 764 mmHg 88%
    07:00 +5°C° 0 mm 2 mps 764 mmHg 85%
    08:00 +6°C° 0 mm 2 mps 765 mmHg 81%
    09:00 +7°C° 0 mm 2 mps 765 mmHg 78%
    10:00 +8°C° 0 mm 2 mps 765 mmHg 75%
    11:00 +9°C° 0 mm 2 mps 765 mmHg 73%
    12:00 +10°C° 0 mm 2 mps 765 mmHg 70%
    13:00 +10°C° 0 mm 2 mps 765 mmHg 69%
    14:00 +11°C° 0 mm 1 mps 765 mmHg 69%
    15:00 +11°C° 0 mm 1 mps 765 mmHg 68%
    16:00 +11°C° 0 mm 1 mps 765 mmHg 70%
    17:00 +10°C° 0 mm 1 mps 765 mmHg 71%
    18:00 +10°C° 0 mm 1 mps 765 mmHg 73%
    19:00 +8°C° 0 mm 2 mps 765 mmHg 73%
    20:00 +8°C° 0 mm 2 mps 765 mmHg 73%
    21:00 +8°C° 0 mm 2 mps 766 mmHg 74%
    22:00 +7°C° 0 mm 3 mps 765 mmHg 75%
    23:00 +5°C° 0 mm 3 mps 765 mmHg 77%

    21 October, Monday

    Time Temperature Precipitation Wind Pressure Humidity
    00:00 +5°C° 0 mm 3 mps 765 mmHg 78%
    01:00 +4°C° 0 mm 3 mps 765 mmHg 78%
    02:00 +4°C° 0 mm 3 mps 765 mmHg 78%
    03:00 +4°C° 0 mm 3 mps 765 mmHg 78%
    04:00 +4°C° 0 mm 3 mps 765 mmHg 78%
    05:00 +4°C° 0 mm 3 mps 765 mmHg 78%
    06:00 +4°C° 0 mm 3 mps 765 mmHg 79%
    07:00 +5°C° 0 mm 3 mps 765 mmHg 76%
    08:00 +6°C° 0 mm 4 mps 764 mmHg 73%
    09:00 +7°C° 0 mm 4 mps 764 mmHg 70%
    10:00 +8°C° 0 mm 4 mps 764 mmHg 67%
    11:00 +10°C° 0 mm 5 mps 764 mmHg 64%
    12:00 +12°C° 0 mm 5 mps 764 mmHg 61%
    13:00 +12°C° 0 mm 5 mps 763 mmHg 61%
    14:00 +13°C° 0 mm 5 mps 763 mmHg 61%
    15:00 +13°C° 0 mm 5 mps 763 mmHg 61%
    16:00 +12°C° 0 mm 5 mps 763 mmHg 66%
    17:00 +11°C° 0 mm 4 mps 763 mmHg 70%
    18:00 +10°C° 0 mm 4 mps 763 mmHg 74%
    19:00 +10°C° 0 mm 4 mps 762 mmHg 75%
    20:00 +8°C° 0 mm 4 mps 762 mmHg 75%
    21:00 +8°C° 0 mm 5 mps 762 mmHg 76%
    22:00 +8°C° 0 mm 5 mps 762 mmHg 76%
    23:00 +8°C° 0 mm 5 mps 762 mmHg 77%

    22 October, Tuesday

    Time Temperature Precipitation Wind Pressure Humidity
    00:00 +8°C° 0 mm 5 mps 761 mmHg 78%
    01:00 +8°C° 0 mm 5 mps 761 mmHg 78%
    02:00 +7°C° 0 mm 5 mps 761 mmHg 79%
    03:00 +7°C° 0 mm 5 mps 761 mmHg 79%
    04:00 +7°C° 0 mm 5 mps 760 mmHg 80%
    05:00 +7°C° 0 mm 5 mps 760 mmHg 81%
    06:00 +7°C° 0 mm 5 mps 760 mmHg 81%
    07:00 +8°C° 0 mm 6 mps 760 mmHg 77%
    08:00 +9°C° 0 mm 6 mps 760 mmHg 73%
    09:00 +10°C° 0 mm 6 mps 759 mmHg 68%
    10:00 +11°C° 0 mm 7 mps 759 mmHg 64%
    11:00 +14°C° 0 mm 7 mps 759 mmHg 59%
    12:00 +15°C° 0 mm 7 mps 759 mmHg 55%
    13:00 +15°C° 0 mm 7 mps 758 mmHg 55%
    14:00 +15°C° 0 mm 7 mps 758 mmHg 55%
    15:00 +15°C° 0 mm 6 mps 757 mmHg 55%
    16:00 +14°C° 0 mm 6 mps 757 mmHg 58%
    17:00 +13°C° 0 mm 6 mps 757 mmHg 60%
    18:00 +13°C° 0 mm 6 mps 757 mmHg 63%
    19:00 +11°C° 0 mm 6 mps 756 mmHg 64%
    20:00 +11°C° 0 mm 7 mps 756 mmHg 64%
    21:00 +11°C° 0 mm 7 mps 756 mmHg 65%
    22:00 +11°C° 0 mm 7 mps 755 mmHg 66%
    23:00 +10°C° 0 mm 7 mps 755 mmHg 66%
    Show more